User: anonymous   Login
Location: Bourth
(48.7670°N, 0.8113°E)
Time: 21:56:19
(UTC+02:00)
Language:

ISS - Orbit

View from above orbital plane
View from above orbital plane
View from above satellite
View from above satellite

Ground track
Ground track

The orbit data is extracted from the following two-line orbital elements,

1 25544U 98067A   21204.63628236  .00003278  00000-0  67949-4 0  9994
2 25544  51.6428 162.4792 0001470 186.7796 346.1118 15.48849745294245
Epoch (UTC): 23 July 2021 15:16:14
Eccentricity: 0.0001470
inclination: 51.6428°
perigee height: 419 km
apogee height: 421 km
right ascension of ascending node: 162.4792°
argument of perigee: 186.7796°
revolutions per day: 15.48849745
mean anomaly at epoch: 346.1118°
orbit number at epoch: 29424

The dashed part of the orbit path shows where the satellite is in the earth's shadow,  

DLR